Tracking 28790 objects as of 19-Apr-2024
HD Live streaming from Space Station
objects crossing your sky now

NOAA 16 DEB

Track NOAA 16 DEB now!
10-day predictions


NORAD ID: 42397
Int'l Code: 2000-055SR
Perigee: 779.8 km
Apogee: 851.2 km
Inclination: 98.7 °
Period: 101.0 minutes
Semi major axis: 7186 km
RCS: Unknown
Launch date: September 21, 2000
Source: United States (US)
Launch site: AIR FORCE WESTERN TEST RANGE (AFWTR)

Note: This is SATELLITE DEBRIS
Your satellite tracking list
Your tracking list is empty




NASA's NSSDC Master Catalog

Two Line Element Set (TLE):
1 42397U 00055SR  24109.44340329  .00016060  00000-0  67723-2 0  9990
2 42397  98.7443 183.5511 0049669 111.4841 249.1644 14.25040654420311
Source of the keplerian elements: AFSPC